User: anonymous   Login
Location: Mentone
(34.5413°N, 85.5351°W)
Time: 14:21:07
(UTC-05:00)
Language:

ATLAS 5 CENTAUR R/B - Orbit

View from above orbital plane
View from above orbital plane
View from above satellite
View from above satellite

Ground track
Ground track

The orbit data is extracted from the following two-line orbital elements,

1 31702U 07027B   15105.85424720 0.00000300  00000-0  12354-3 0    07
2 31702  63.3760  12.9137 0180000 353.8310   6.1690 14.18335219    04
Epoch (UTC): 15 April 2015 20:30:06
Eccentricity: 0.0180000
inclination: 63.3760°
perigee height: 701 km
apogee height: 961 km
right ascension of ascending node: 12.9137°
argument of perigee: 353.8310°
revolutions per day: 14.18335219
mean anomaly at epoch: 6.1690°
orbit number at epoch: 0

The dashed part of the orbit path shows where the satellite is in the earth's shadow,  

DLR